| time (UTC) | temp F | wind direction | speed MPH | gust MPH | rain 1hr in | rain 24hr in | rain mn in | humidity % | barometer mb |
| 20260507105040 | 50 | 90 | 0.0 | 1.0 | 0.00 | 0.00 | 0.00 | 83 | 1015.0 |
| 20260507104605 | 50 | 0 | 0.0 | 2.0 | 0.00 | 0.00 | 0.00 | 83 | 1015.0 |
| 20260507104145 | 50 | 0 | 0.0 | 1.0 | 0.00 | 0.00 | 0.00 | 84 | 1015.1 |
| 20260507103740 | 50 | 0 | 0.0 | 1.0 | 0.00 | 0.00 | 0.00 | 83 | 1015.1 |
| 20260507103328 | 50 | 0 | 0.0 | 1.0 | 0.00 | 0.00 | 0.00 | 83 | 1015.0 |
| 20260507102915 | 50 | 0 | 0.0 | 1.0 | 0.00 | 0.00 | 0.00 | 84 | 1015.0 |
| 20260507102421 | 50 | 0 | 0.0 | 1.0 | 0.00 | 0.00 | 0.00 | 83 | 1015.0 |
| 20260507101950 | 50 | 90 | 0.0 | 1.0 | 0.00 | 0.00 | 0.00 | 83 | 1014.9 |
| 20260507101541 | 50 | 270 | 0.0 | 1.0 | 0.00 | 0.00 | 0.00 | 84 | 1014.9 |
| 20260507101140 | 50 | 0 | 0.0 | 2.0 | 0.00 | 0.00 | 0.00 | 83 | 1014.9 |
| 20260507100720 | 50 | 0 | 0.0 | 1.0 | 0.00 | 0.00 | 0.00 | 83 | 1014.9 |
| 20260507100241 | 50 | 0 | 0.0 | 2.0 | 0.00 | 0.00 | 0.00 | 84 | 1014.9 |
| 20260507095805 | 50 | 90 | 0.0 | 2.0 | 0.00 | 0.00 | 0.00 | 85 | 1014.8 |
| 20260507095315 | 49 | 135 | 0.0 | 1.0 | 0.00 | 0.00 | 0.00 | 85 | 1014.8 |
| 20260507094905 | 49 | 0 | 0.0 | 1.0 | 0.00 | 0.00 | 0.00 | 85 | 1014.7 |
| 20260507094405 | 49 | 90 | 0.0 | 1.0 | 0.00 | 0.00 | 0.00 | 85 | 1014.7 |
| 20260507093935 | 49 | 135 | 0.0 | 2.0 | 0.00 | 0.00 | 0.00 | 85 | 1014.8 |
| 20260507093525 | 49 | 45 | 0.0 | 1.0 | 0.00 | 0.00 | 0.00 | 85 | 1014.6 |
| 20260507093121 | 49 | 135 | 0.0 | 1.0 | 0.00 | 0.00 | 0.00 | 85 | 1014.5 |
| 20260507092640 | 49 | 270 | 0.0 | 1.0 | 0.00 | 0.00 | 0.00 | 85 | 1014.5 |
| 20260507092220 | 49 | 180 | 0.0 | 2.0 | 0.00 | 0.00 | 0.00 | 85 | 1014.5 |
| 20260507091810 | 49 | 135 | 0.0 | 1.0 | 0.00 | 0.00 | 0.00 | 86 | 1014.5 |
| 20260507091340 | 49 | 0 | 0.0 | 1.0 | 0.00 | 0.00 | 0.00 | 86 | 1014.4 |
| 20260507090900 | 49 | 270 | 0.0 | 2.0 | 0.00 | 0.00 | 0.00 | 87 | 1014.3 |
| 20260507090435 | 48 | 90 | 0.0 | 2.0 | 0.00 | 0.00 | 0.00 | 87 | 1014.2 |
| 20260507090015 | 48 | 0 | 0.0 | 2.0 | 0.00 | 0.00 | 0.00 | 87 | 1014.2 |
| 20260507085520 | 48 | 90 | 0.0 | 1.0 | 0.00 | 0.00 | 0.00 | 87 | 1014.1 |
| 20260507085025 | 48 | 180 | 0.0 | 2.0 | 0.00 | 0.00 | 0.00 | 87 | 1014.2 |
| 20260507084600 | 48 | 270 | 0.0 | 1.0 | 0.00 | 0.00 | 0.00 | 87 | 1014.1 |
| 20260507084121 | 48 | 135 | 0.0 | 2.0 | 0.00 | 0.00 | 0.00 | 87 | 1014.0 |
| 20260507083705 | 48 | 45 | 0.0 | 2.0 | 0.00 | 0.00 | 0.00 | 87 | 1014.0 |
| 20260507083210 | 48 | 90 | 0.0 | 1.0 | 0.00 | 0.00 | 0.00 | 87 | 1014.0 |
| 20260507082730 | 48 | 45 | 0.0 | 1.0 | 0.00 | 0.00 | 0.00 | 87 | 1013.9 |
| 20260507082250 | 48 | 90 | 0.0 | 2.0 | 0.00 | 0.00 | 0.00 | 87 | 1013.9 |
| 20260507081815 | 48 | 270 | 0.0 | 1.0 | 0.00 | 0.00 | 0.00 | 87 | 1013.8 |
| 20260507081320 | 48 | 45 | 0.0 | 2.0 | 0.00 | 0.00 | 0.00 | 87 | 1013.8 |
| 20260507080855 | 48 | 90 | 0.0 | 1.0 | 0.00 | 0.00 | 0.00 | 88 | 1013.6 |
| 20260507080400 | 48 | 180 | 0.0 | 1.0 | 0.00 | 0.00 | 0.00 | 88 | 1013.7 |
| 20260507075920 | 47 | 180 | 0.0 | 1.0 | 0.00 | 0.00 | 0.00 | 88 | 1013.6 |
| 20260507075445 | 47 | 90 | 0.0 | 2.0 | 0.00 | 0.00 | 0.00 | 88 | 1013.7 |
| 20260507074945 | 47 | 180 | 0.0 | 1.0 | 0.00 | 0.00 | 0.00 | 88 | 1013.6 |
| 20260507074515 | 47 | 90 | 0.0 | 1.0 | 0.00 | 0.00 | 0.00 | 88 | 1013.6 |
| 20260507074045 | 47 | 90 | 0.0 | 1.0 | 0.00 | 0.00 | 0.00 | 88 | 1013.6 |
| 20260507073615 | 47 | 0 | 0.0 | 1.0 | 0.00 | 0.00 | 0.00 | 88 | 1013.4 |
| 20260507073210 | 47 | 180 | 0.0 | 1.0 | 0.00 | 0.00 | 0.00 | 88 | 1013.4 |
| 20260507072732 | 47 | 90 | 0.0 | 0.0 | 0.00 | 0.00 | 0.00 | 88 | 1013.4 |
| 20260507072335 | 47 | 90 | 0.0 | 1.0 | 0.00 | 0.00 | 0.00 | 88 | 1013.3 |
| 20260507071935 | 47 | 90 | 0.0 | 1.0 | 0.00 | 0.00 | 0.00 | 88 | 1013.4 |
| 20260507071451 | 47 | 45 | 0.0 | 1.0 | 0.00 | 0.00 | 0.00 | 88 | 1013.4 |
| 20260507071020 | 47 | 135 | 0.0 | 1.0 | 0.00 | 0.00 | 0.00 | 88 | 1013.3 |
| 20260507070530 | 47 | 90 | 0.0 | 0.0 | 0.00 | 0.00 | 0.00 | 88 | 1013.3 |
| 20260507070041 | 47 | 0 | 0.0 | 1.0 | 0.00 | 0.00 | 0.00 | 88 | 1013.3 |
| 20260507065640 | 47 | 90 | 0.0 | 1.0 | 0.00 | 0.00 | 0.00 | 88 | 1013.2 |
| 20260507065200 | 47 | 0 | 0.0 | 1.0 | 0.00 | 0.00 | 0.00 | 88 | 1013.1 |
| 20260507064715 | 47 | 270 | 0.0 | 0.0 | 0.00 | 0.00 | 0.00 | 88 | 1013.1 |
| 20260507064255 | 47 | 90 | 0.0 | 0.0 | 0.00 | 0.00 | 0.00 | 88 | 1013.1 |
| 20260507063438 | 47 | 0 | 0.0 | 1.0 | 0.00 | 0.00 | 0.00 | 88 | 1013.0 |
| 20260507062958 | 47 | 90 | 0.0 | 1.0 | 0.00 | 0.00 | 0.00 | 88 | 1013.1 |
| 20260507062525 | 47 | 0 | 0.0 | 1.0 | 0.00 | 0.00 | 0.00 | 88 | 1013.1 |
| 20260507062122 | 47 | 0 | 0.0 | 1.0 | 0.00 | 0.00 | 0.00 | 88 | 1013.1 |
| 20260507061704 | 47 | 45 | 0.0 | 2.0 | 0.00 | 0.00 | 0.00 | 88 | 1013.1 |
| 20260507061250 | 47 | 45 | 0.0 | 1.0 | 0.00 | 0.00 | 0.00 | 88 | 1013.0 |
| 20260507060850 | 47 | 90 | 0.0 | 2.0 | 0.00 | 0.00 | 0.00 | 88 | 1012.9 |
| 20260507060425 | 47 | 90 | 0.0 | 1.0 | 0.00 | 0.00 | 0.00 | 88 | 1012.7 |
| 20260507060008 | 47 | 90 | 0.0 | 1.0 | 0.00 | 0.00 | 0.00 | 88 | 1012.7 |
| 20260507055510 | 47 | 90 | 0.0 | 1.0 | 0.00 | 0.00 | 0.00 | 89 | 1012.6 |
| 20260507055105 | 47 | 0 | 0.0 | 1.0 | 0.00 | 0.00 | 0.00 | 89 | 1012.6 |
| 20260507054635 | 47 | 225 | 0.0 | 1.0 | 0.00 | 0.00 | 0.00 | 89 | 1012.6 |
| 20260507054218 | 46 | 90 | 0.0 | 0.0 | 0.00 | 0.00 | 0.00 | 89 | 1012.6 |
| 20260507053805 | 46 | 270 | 0.0 | 1.0 | 0.00 | 0.00 | 0.00 | 89 | 1012.4 |
| 20260507053310 | 46 | 135 | 0.0 | 1.0 | 0.00 | 0.00 | 0.00 | 89 | 1012.3 |
| 20260507052818 | 46 | 90 | 0.0 | 0.0 | 0.00 | 0.00 | 0.00 | 89 | 1012.2 |
| 20260507052400 | 46 | 90 | 0.0 | 2.0 | 0.00 | 0.00 | 0.00 | 89 | 1012.2 |
| 20260507051915 | 46 | 90 | 0.0 | 1.0 | 0.00 | 0.00 | 0.00 | 89 | 1012.3 |
| 20260507051424 | 46 | 315 | 0.0 | 1.0 | 0.00 | 0.00 | 0.00 | 89 | 1012.3 |
| 20260507050938 | 46 | 90 | 0.0 | 1.0 | 0.00 | 0.00 | 0.00 | 89 | 1012.1 |
| 20260507050500 | 46 | 180 | 0.0 | 2.0 | 0.00 | 0.00 | 0.00 | 90 | 1012.1 |
| 20260507050045 | 46 | 45 | 0.0 | 2.0 | 0.00 | 0.00 | 0.00 | 90 | 1012.1 |
| 20260507045558 | 46 | 0 | 0.0 | 2.0 | 0.00 | 0.00 | 0.00 | 90 | 1012.0 |
| 20260507045115 | 46 | 90 | 0.0 | 1.0 | 0.00 | 0.00 | 0.00 | 90 | 1011.9 |
| 20260507044630 | 47 | 0 | 0.0 | 1.0 | 0.00 | 0.00 | 0.00 | 90 | 1011.8 |
| 20260507044205 | 46 | 270 | 0.0 | 1.0 | 0.00 | 0.00 | 0.00 | 90 | 1011.8 |
| 20260507043710 | 46 | 270 | 0.0 | 1.0 | 0.00 | 0.00 | 0.00 | 90 | 1011.7 |
| 20260507043235 | 46 | 90 | 0.0 | 1.0 | 0.00 | 0.00 | 0.00 | 90 | 1011.6 |
| 20260507042735 | 46 | 90 | 0.0 | 1.0 | 0.00 | 0.00 | 0.00 | 90 | 1011.6 |
| 20260507042307 | 46 | 0 | 0.0 | 1.0 | 0.00 | 0.00 | 0.00 | 90 | 1011.6 |
| 20260507041825 | 46 | 90 | 0.0 | 0.0 | 0.00 | 0.00 | 0.00 | 91 | 1011.7 |
| 20260507041345 | 46 | 90 | 0.0 | 1.0 | 0.00 | 0.00 | 0.00 | 91 | 1011.6 |
| 20260507040855 | 46 | 315 | 0.0 | 2.0 | 0.00 | 0.00 | 0.00 | 91 | 1011.6 |
| 20260507040405 | 46 | 180 | 0.0 | 1.0 | 0.00 | 0.00 | 0.00 | 91 | 1011.4 |
| 20260507035958 | 47 | 90 | 0.0 | 0.0 | 0.00 | 0.00 | 0.00 | 91 | 1011.4 |
| 20260507035515 | 47 | 90 | 0.0 | 1.0 | 0.00 | 0.00 | 0.00 | 91 | 1011.4 |
| 20260507035025 | 47 | 90 | 0.0 | 1.0 | 0.00 | 0.00 | 0.00 | 91 | 1011.4 |
| 20260507034605 | 46 | 0 | 0.0 | 1.0 | 0.00 | 0.00 | 0.00 | 91 | 1011.4 |
| 20260507034158 | 47 | 315 | 0.0 | 1.0 | 0.00 | 0.00 | 0.00 | 91 | 1011.3 |
| 20260507033758 | 46 | 0 | 0.0 | 2.0 | 0.00 | 0.00 | 0.00 | 91 | 1011.3 |
| 20260507033335 | 46 | 45 | 0.0 | 1.0 | 0.00 | 0.00 | 0.00 | 91 | 1011.2 |
| 20260507032925 | 46 | 270 | 0.0 | 1.0 | 0.00 | 0.00 | 0.00 | 91 | 1011.1 |
| 20260507032438 | 46 | 90 | 0.0 | 1.0 | 0.00 | 0.00 | 0.00 | 92 | 1011.1 |
| 20260507032030 | 47 | 270 | 0.0 | 1.0 | 0.00 | 0.00 | 0.00 | 91 | 1011.1 |
| 20260507031555 | 46 | 90 | 0.0 | 1.0 | 0.00 | 0.00 | 0.00 | 91 | 1011.1 |
| 20260507031105 | 46 | 0 | 0.0 | 1.0 | 0.00 | 0.00 | 0.00 | 91 | 1011.1 |
| 20260507030655 | 46 | 0 | 0.0 | 1.0 | 0.00 | 0.00 | 0.00 | 91 | 1011.1 |
| 20260507030225 | 46 | 270 | 0.0 | 1.0 | 0.00 | 0.00 | 0.00 | 91 | 1011.1 |
| 20260507025745 | 47 | 90 | 0.0 | 1.0 | 0.00 | 0.00 | 0.00 | 91 | 1011.1 |
| 20260507025255 | 47 | 135 | 0.0 | 2.0 | 0.00 | 0.00 | 0.00 | 91 | 1011.1 |
| 20260507024805 | 46 | 270 | 0.0 | 1.0 | 0.00 | 0.00 | 0.00 | 91 | 1011.0 |
| 20260507024325 | 46 | 180 | 0.0 | 1.0 | 0.00 | 0.00 | 0.00 | 91 | 1011.1 |
| 20260507023835 | 46 | 0 | 0.0 | 1.0 | 0.00 | 0.00 | 0.00 | 91 | 1011.0 |
| 20260507023430 | 46 | 0 | 0.0 | 1.0 | 0.00 | 0.00 | 0.00 | 91 | 1011.0 |
| 20260507023005 | 47 | 135 | 0.0 | 1.0 | 0.00 | 0.00 | 0.00 | 91 | 1011.1 |
| 20260507022538 | 47 | 90 | 0.0 | 2.0 | 0.00 | 0.00 | 0.00 | 92 | 1011.1 |
| 20260507022110 | 47 | 180 | 0.0 | 1.0 | 0.00 | 0.00 | 0.00 | 91 | 1011.0 |
| 20260507021623 | 47 | 90 | 0.0 | 2.0 | 0.00 | 0.00 | 0.00 | 92 | 1010.9 |
| 20260507021210 | 47 | 0 | 0.0 | 1.0 | 0.00 | 0.00 | 0.00 | 92 | 1010.9 |
| 20260507020738 | 47 | 90 | 0.0 | 0.0 | 0.00 | 0.00 | 0.00 | 92 | 1010.8 |
| 20260507020338 | 47 | 90 | 0.0 | 0.0 | 0.00 | 0.00 | 0.00 | 91 | 1010.8 |
| 20260507015845 | 47 | 90 | 0.0 | 1.0 | 0.00 | 0.00 | 0.00 | 91 | 1010.7 |
| 20260507015440 | 47 | 90 | 0.0 | 1.0 | 0.00 | 0.00 | 0.00 | 91 | 1010.7 |
| 20260507015010 | 47 | 0 | 0.0 | 0.0 | 0.00 | 0.00 | 0.00 | 91 | 1010.7 |
| 20260507014515 | 47 | 180 | 0.0 | 0.0 | 0.00 | 0.00 | 0.00 | 91 | 1010.7 |
| 20260507014015 | 47 | 90 | 0.0 | 1.0 | 0.00 | 0.00 | 0.00 | 91 | 1010.8 |
| 20260507013615 | 47 | 0 | 0.0 | 1.0 | 0.00 | 0.00 | 0.00 | 91 | 1010.7 |
| 20260507013205 | 47 | 0 | 0.0 | 1.0 | 0.00 | 0.00 | 0.00 | 91 | 1010.7 |
| 20260507012750 | 47 | 315 | 0.0 | 1.0 | 0.00 | 0.00 | 0.00 | 91 | 1010.7 |
| 20260507012306 | 47 | 45 | 0.0 | 1.0 | 0.00 | 0.00 | 0.00 | 91 | 1010.7 |
| 20260507011822 | 47 | 90 | 0.0 | 1.0 | 0.00 | 0.00 | 0.00 | 91 | 1010.6 |
| 20260507011340 | 47 | 315 | 0.0 | 2.0 | 0.00 | 0.00 | 0.00 | 91 | 1010.6 |
| 20260507010936 | 47 | 90 | 0.0 | 2.0 | 0.00 | 0.00 | 0.00 | 91 | 1010.5 |
| 20260507010455 | 47 | 270 | 0.0 | 1.0 | 0.00 | 0.00 | 0.00 | 91 | 1010.5 |
| 20260507010025 | 47 | 90 | 0.0 | 2.0 | 0.00 | 0.00 | 0.00 | 91 | 1010.4 |
| 20260507005615 | 48 | 90 | 0.0 | 1.0 | 0.00 | 0.00 | 0.00 | 91 | 1010.4 |
| 20260507005135 | 48 | 90 | 0.0 | 1.0 | 0.00 | 0.00 | 0.00 | 91 | 1010.4 |
| 20260507004725 | 48 | 90 | 0.0 | 0.0 | 0.00 | 0.00 | 0.00 | 91 | 1010.4 |
| 20260507004315 | 48 | 270 | 0.0 | 1.0 | 0.00 | 0.00 | 0.00 | 91 | 1010.3 |
| 20260507003855 | 48 | 90 | 0.0 | 2.0 | 0.00 | 0.00 | 0.00 | 91 | 1010.2 |
| 20260507003425 | 48 | 270 | 0.0 | 1.0 | 0.00 | 0.00 | 0.00 | 91 | 1010.2 |
| 20260507002958 | 48 | 180 | 0.0 | 1.0 | 0.00 | 0.00 | 0.00 | 91 | 1010.0 |
| 20260507002525 | 48 | 270 | 0.0 | 1.0 | 0.00 | 0.00 | 0.00 | 91 | 1009.9 |
| 20260507002035 | 48 | 135 | 0.0 | 1.0 | 0.00 | 0.00 | 0.00 | 91 | 1010.0 |
| 20260507001620 | 48 | 0 | 0.0 | 1.0 | 0.00 | 0.00 | 0.00 | 91 | 1009.9 |
| 20260507001129 | 48 | 0 | 0.0 | 1.0 | 0.00 | 0.00 | 0.00 | 91 | 1009.9 |
| 20260507000708 | 49 | 270 | 0.0 | 2.0 | 0.00 | 0.00 | 0.00 | 91 | 1009.9 |
| 20260507000306 | 49 | 0 | 0.0 | 1.0 | 0.00 | 0.00 | 0.00 | 91 | 1009.8 |
| 20260506235838 | 49 | 90 | 0.0 | 2.0 | 0.00 | 0.00 | 0.00 | 91 | 1009.9 |
| 20260506235345 | 49 | 270 | 0.0 | 2.0 | 0.00 | 0.00 | 0.00 | 92 | 1010.0 |
| 20260506234858 | 49 | 90 | 0.0 | 2.0 | 0.00 | 0.00 | 0.00 | 92 | 1009.8 |
| 20260506234410 | 49 | 270 | 0.0 | 0.0 | 0.00 | 0.00 | 0.00 | 92 | 1009.8 |
| 20260506233922 | 49 | 0 | 0.0 | 1.0 | 0.00 | 0.00 | 0.00 | 92 | 1009.8 |
| 20260506233515 | 49 | 90 | 0.0 | 1.0 | 0.00 | 0.00 | 0.00 | 92 | 1009.8 |
| 20260506233058 | 49 | 90 | 0.0 | 1.0 | 0.00 | 0.00 | 0.00 | 92 | 1009.9 |
| 20260506232558 | 49 | 45 | 0.0 | 2.0 | 0.00 | 0.00 | 0.00 | 92 | 1009.8 |
| 20260506232105 | 50 | 0 | 0.0 | 0.0 | 0.00 | 0.00 | 0.00 | 92 | 1009.9 |
| 20260506231658 | 50 | 45 | 0.0 | 1.0 | 0.00 | 0.00 | 0.00 | 92 | 1009.9 |
| 20260506231215 | 50 | 0 | 0.0 | 2.0 | 0.00 | 0.00 | 0.00 | 92 | 1009.9 |
| 20260506230748 | 50 | 0 | 0.0 | 0.0 | 0.00 | 0.00 | 0.00 | 92 | 1009.9 |
| 20260506230324 | 50 | 90 | 0.0 | 1.0 | 0.00 | 0.00 | 0.00 | 92 | 1009.8 |
| 20260506225910 | 50 | 0 | 0.0 | 1.0 | 0.00 | 0.00 | 0.00 | 92 | 1009.7 |
| 20260506225410 | 50 | 90 | 0.0 | 0.0 | 0.00 | 0.00 | 0.00 | 92 | 1009.7 |
| 20260506224945 | 50 | 0 | 0.0 | 1.0 | 0.00 | 0.00 | 0.00 | 92 | 1009.6 |
| 20260506224530 | 50 | 90 | 0.0 | 1.0 | 0.00 | 0.00 | 0.00 | 92 | 1009.5 |
| 20260506224115 | 50 | 180 | 0.0 | 0.0 | 0.00 | 0.00 | 0.00 | 92 | 1009.5 |
| 20260506223715 | 50 | 90 | 0.0 | 1.0 | 0.00 | 0.00 | 0.00 | 92 | 1009.5 |
| 20260506223255 | 50 | 90 | 0.0 | 1.0 | 0.00 | 0.00 | 0.00 | 92 | 1009.4 |
| 20260506222755 | 50 | 90 | 0.0 | 1.0 | 0.00 | 0.00 | 0.00 | 92 | 1009.4 |
| 20260506222340 | 50 | 135 | 0.0 | 0.0 | 0.00 | 0.00 | 0.00 | 92 | 1009.4 |
| 20260506221925 | 50 | 180 | 0.0 | 1.0 | 0.00 | 0.00 | 0.00 | 92 | 1009.4 |
| 20260506221450 | 50 | 90 | 0.0 | 1.0 | 0.00 | 0.00 | 0.00 | 92 | 1009.4 |
| 20260506221030 | 50 | 90 | 0.0 | 1.0 | 0.00 | 0.00 | 0.00 | 92 | 1009.4 |
| 20260506220555 | 50 | 180 | 0.0 | 2.0 | 0.00 | 0.62 | 0.00 | 92 | 1009.5 |
| 20260506220138 | 50 | 180 | 0.0 | 2.0 | 0.00 | 0.62 | 0.00 | 92 | 1009.5 |
| 20260506215650 | 50 | 0 | 0.0 | 0.0 | 0.00 | 0.62 | 0.00 | 92 | 1009.5 |
| 20260506215218 | 50 | 270 | 0.0 | 0.0 | 0.00 | 0.62 | 0.00 | 92 | 1009.5 |
| 20260506214755 | 50 | 270 | 0.0 | 0.0 | 0.00 | 0.62 | 0.00 | 92 | 1009.4 |
| 20260506214315 | 50 | 135 | 0.0 | 1.0 | 0.00 | 0.62 | 0.00 | 92 | 1009.4 |
| 20260506213910 | 50 | 90 | 0.0 | 0.0 | 0.00 | 0.62 | 0.00 | 92 | 1009.4 |
| 20260506213440 | 50 | 0 | 0.0 | 1.0 | 0.00 | 0.62 | 0.00 | 92 | 1009.3 |
| 20260506213025 | 50 | 90 | 0.0 | 0.0 | 0.00 | 0.62 | 0.00 | 92 | 1009.4 |
| 20260506212555 | 50 | 90 | 0.0 | 0.0 | 0.00 | 0.62 | 0.00 | 92 | 1009.4 |
| 20260506212125 | 50 | 90 | 0.0 | 1.0 | 0.00 | 0.62 | 0.00 | 92 | 1009.3 |
| 20260506211705 | 50 | 270 | 0.0 | 0.0 | 0.00 | 0.62 | 0.00 | 92 | 1009.3 |
| 20260506211238 | 50 | 90 | 0.0 | 1.0 | 0.00 | 0.62 | 0.00 | 92 | 1009.4 |
| 20260506210748 | 50 | 135 | 0.0 | 1.0 | 0.00 | 0.62 | 0.00 | 92 | 1009.2 |
| 20260506210255 | 50 | 135 | 0.0 | 1.0 | 0.00 | 0.62 | 0.00 | 92 | 1009.3 |
| 20260506205825 | 50 | 90 | 0.0 | 0.0 | 0.00 | 0.62 | 0.00 | 92 | 1009.2 |
| 20260506205348 | 50 | 90 | 0.0 | 1.0 | 0.00 | 0.62 | 0.00 | 92 | 1009.2 |
| 20260506204905 | 51 | 90 | 0.0 | 0.0 | 0.00 | 0.62 | 0.00 | 92 | 1009.2 |
| 20260506204438 | 51 | 270 | 0.0 | 1.0 | 0.00 | 0.62 | 0.00 | 92 | 1009.2 |
| 20260506203955 | 51 | 180 | 0.0 | 1.0 | 0.00 | 0.62 | 0.00 | 92 | 1009.2 |
| 20260506203545 | 51 | 135 | 0.0 | 2.0 | 0.00 | 0.62 | 0.00 | 92 | 1009.1 |
| 20260506203118 | 51 | 270 | 0.0 | 2.0 | 0.00 | 0.62 | 0.00 | 92 | 1008.9 |
| 20260506202708 | 51 | 90 | 0.0 | 1.0 | 0.00 | 0.62 | 0.00 | 92 | 1008.9 |
| 20260506202258 | 51 | 90 | 0.0 | 1.0 | 0.00 | 0.62 | 0.00 | 92 | 1008.8 |
| 20260506201815 | 51 | 90 | 0.0 | 0.0 | 0.00 | 0.62 | 0.00 | 92 | 1008.7 |
| 20260506201410 | 51 | 180 | 0.0 | 1.0 | 0.00 | 0.62 | 0.00 | 92 | 1008.8 |
| 20260506200941 | 51 | 90 | 0.0 | 1.0 | 0.00 | 0.62 | 0.00 | 92 | 1008.8 |
| 20260506200518 | 51 | 90 | 0.0 | 0.0 | 0.00 | 0.62 | 0.00 | 92 | 1008.8 |
| 20260506200055 | 51 | 90 | 0.0 | 0.0 | 0.00 | 0.62 | 0.00 | 92 | 1008.9 |
| 20260506195615 | 51 | 90 | 0.0 | 1.0 | 0.00 | 0.62 | 0.00 | 92 | 1008.9 |
| 20260506195128 | 51 | 90 | 0.0 | 1.0 | 0.00 | 0.62 | 0.00 | 92 | 1008.9 |
| 20260506194658 | 51 | 0 | 0.0 | 2.0 | 0.00 | 0.62 | 0.00 | 92 | 1009.0 |
| 20260506194158 | 51 | 135 | 0.0 | 1.0 | 0.00 | 0.62 | 0.00 | 92 | 1008.9 |
| 20260506193715 | 51 | 90 | 0.0 | 1.0 | 0.00 | 0.62 | 0.00 | 92 | 1008.9 |
| 20260506193218 | 51 | 90 | 0.0 | 1.0 | 0.00 | 0.62 | 0.00 | 92 | 1008.8 |
| 20260506192758 | 51 | 0 | 0.0 | 1.0 | 0.00 | 0.62 | 0.00 | 92 | 1008.7 |
| 20260506192350 | 51 | 315 | 0.0 | 1.0 | 0.00 | 0.62 | 0.00 | 92 | 1008.6 |
| 20260506191935 | 51 | 90 | 0.0 | 0.0 | 0.00 | 0.62 | 0.00 | 92 | 1008.6 |
| 20260506191525 | 51 | 90 | 0.0 | 0.0 | 0.00 | 0.62 | 0.00 | 92 | 1008.5 |
| 20260506191058 | 51 | 180 | 0.0 | 1.0 | 0.00 | 0.62 | 0.00 | 92 | 1008.5 |
| 20260506190625 | 52 | 270 | 0.0 | 2.0 | 0.00 | 0.62 | 0.00 | 92 | 1008.5 |
| 20260506190125 | 52 | 270 | 0.0 | 1.0 | 0.00 | 0.62 | 0.00 | 92 | 1008.3 |
| 20260506185718 | 52 | 90 | 0.0 | 1.0 | 0.00 | 0.62 | 0.00 | 92 | 1008.1 |
| 20260506185218 | 52 | 135 | 0.0 | 2.0 | 0.00 | 0.62 | 0.00 | 92 | 1008.0 |
| 20260506184750 | 52 | 0 | 0.0 | 1.0 | 0.00 | 0.62 | 0.00 | 92 | 1008.1 |
| 20260506184255 | 52 | 90 | 0.0 | 0.0 | 0.00 | 0.62 | 0.00 | 92 | 1008.1 |
| 20260506183820 | 52 | 90 | 0.0 | 1.0 | 0.00 | 0.62 | 0.00 | 92 | 1008.1 |
| 20260506183350 | 52 | 315 | 0.0 | 2.0 | 0.00 | 0.62 | 0.00 | 92 | 1008.1 |
| 20260506182935 | 52 | 90 | 0.0 | 1.0 | 0.00 | 0.62 | 0.00 | 92 | 1008.0 |
| 20260506182505 | 52 | 90 | 0.0 | 1.0 | 0.00 | 0.62 | 0.00 | 92 | 1008.0 |
| 20260506182058 | 52 | 90 | 0.0 | 1.0 | 0.00 | 0.62 | 0.00 | 92 | 1008.1 |
| 20260506181625 | 52 | 270 | 0.0 | 1.0 | 0.00 | 0.62 | 0.00 | 92 | 1008.1 |
| 20260506181215 | 52 | 45 | 0.0 | 2.0 | 0.00 | 0.62 | 0.00 | 92 | 1007.9 |
| 20260506180728 | 53 | 315 | 0.0 | 1.0 | 0.00 | 0.62 | 0.00 | 92 | 1007.8 |
| 20260506180255 | 53 | 315 | 0.0 | 1.0 | 0.00 | 0.62 | 0.00 | 92 | 1007.9 |
| 20260506175835 | 53 | 0 | 0.0 | 1.0 | 0.00 | 0.62 | 0.00 | 92 | 1007.9 |
| 20260506175358 | 53 | 180 | 0.0 | 0.0 | 0.00 | 0.62 | 0.00 | 91 | 1007.7 |
| 20260506174950 | 53 | 0 | 0.0 | 1.0 | 0.00 | 0.62 | 0.00 | 91 | 1007.7 |
| 20260506174458 | 53 | 90 | 0.0 | 1.0 | 0.00 | 0.62 | 0.00 | 91 | 1007.7 |
| 20260506174015 | 53 | 90 | 0.0 | 1.0 | 0.00 | 0.62 | 0.00 | 91 | 1007.6 |
| 20260506173518 | 53 | 90 | 0.0 | 2.0 | 0.00 | 0.62 | 0.00 | 91 | 1007.6 |
| 20260506173050 | 53 | 135 | 0.0 | 2.0 | 0.00 | 0.62 | 0.00 | 91 | 1007.7 |
| 20260506172635 | 53 | 270 | 0.0 | 1.0 | 0.00 | 0.62 | 0.00 | 91 | 1007.7 |
| 20260506172138 | 53 | 90 | 0.0 | 1.0 | 0.00 | 0.62 | 0.00 | 91 | 1007.7 |
| 20260506171705 | 53 | 270 | 0.0 | 1.0 | 0.00 | 0.62 | 0.00 | 91 | 1007.6 |
| 20260506171250 | 53 | 0 | 0.0 | 1.0 | 0.00 | 0.62 | 0.00 | 91 | 1007.6 |
| 20260506170830 | 54 | 270 | 0.0 | 1.0 | 0.00 | 0.62 | 0.00 | 91 | 1007.6 |
| 20260506170338 | 54 | 270 | 0.0 | 1.0 | 0.00 | 0.62 | 0.00 | 91 | 1007.4 |
| 20260506165935 | 54 | 270 | 0.0 | 1.0 | 0.00 | 0.62 | 0.00 | 91 | 1007.5 |
| 20260506165505 | 54 | 45 | 0.0 | 1.0 | 0.00 | 0.62 | 0.00 | 92 | 1007.3 |
| 20260506165010 | 54 | 225 | 0.0 | 1.0 | 0.00 | 0.62 | 0.00 | 92 | 1007.3 |
| 20260506164508 | 54 | 90 | 0.0 | 1.0 | 0.00 | 0.62 | 0.00 | 92 | 1007.3 |
| 20260506164045 | 54 | 45 | 0.0 | 1.0 | 0.00 | 0.62 | 0.00 | 92 | 1007.3 |
| 20260506163610 | 54 | 0 | 0.0 | 1.0 | 0.00 | 0.62 | 0.00 | 92 | 1007.3 |
| 20260506163210 | 54 | 90 | 0.0 | 2.0 | 0.00 | 0.62 | 0.00 | 92 | 1007.2 |
| 20260506162708 | 54 | 135 | 0.0 | 2.0 | 0.00 | 0.62 | 0.00 | 92 | 1007.3 |
| 20260506162218 | 54 | 90 | 0.0 | 2.0 | 0.00 | 0.62 | 0.00 | 92 | 1007.2 |
| 20260506161730 | 54 | 90 | 0.0 | 2.0 | 0.00 | 0.62 | 0.00 | 92 | 1007.2 |
| 20260506161250 | 54 | 90 | 0.0 | 1.0 | 0.00 | 0.62 | 0.00 | 92 | 1007.2 |
| 20260506160808 | 54 | 90 | 0.0 | 1.0 | 0.00 | 0.62 | 0.00 | 92 | 1007.3 |
| 20260506160405 | 54 | 90 | 0.0 | 1.0 | 0.00 | 0.62 | 0.00 | 92 | 1007.2 |
| 20260506155935 | 54 | 270 | 0.0 | 2.0 | 0.00 | 0.62 | 0.00 | 92 | 1007.2 |
| 20260506155438 | 54 | 0 | 0.0 | 2.0 | 0.00 | 0.62 | 0.00 | 92 | 1007.2 |
| 20260506154955 | 54 | 0 | 0.0 | 2.0 | 0.00 | 0.62 | 0.00 | 92 | 1007.3 |
| 20260506154505 | 54 | 0 | 0.0 | 2.0 | 0.00 | 0.62 | 0.00 | 92 | 1007.3 |
| 20260506154038 | 55 | 0 | 0.0 | 2.0 | 0.00 | 0.62 | 0.00 | 93 | 1007.3 |
| 20260506153627 | 55 | 135 | 0.0 | 1.0 | 0.00 | 0.62 | 0.00 | 93 | 1007.3 |
| 20260506153143 | 55 | 135 | 0.0 | 2.0 | 0.00 | 0.62 | 0.00 | 93 | 1007.3 |
| 20260506152710 | 55 | 0 | 0.0 | 1.0 | 0.00 | 0.62 | 0.00 | 93 | 1007.3 |
| 20260506152210 | 55 | 0 | 0.0 | 1.0 | 0.00 | 0.62 | 0.00 | 93 | 1007.4 |
| 20260506151728 | 55 | 0 | 0.0 | 1.0 | 0.00 | 0.62 | 0.00 | 94 | 1007.2 |
| 20260506151230 | 55 | 90 | 0.0 | 1.0 | 0.00 | 0.62 | 0.00 | 94 | 1007.3 |
| 20260506150818 | 55 | 90 | 0.0 | 1.0 | 0.00 | 0.62 | 0.00 | 94 | 1007.2 |
| 20260506150335 | 55 | 270 | 0.0 | 1.0 | 0.00 | 0.62 | 0.00 | 94 | 1007.2 |
| 20260506145840 | 55 | 90 | 0.0 | 2.0 | 0.00 | 0.62 | 0.00 | 94 | 1007.2 |
| 20260506145358 | 55 | 90 | 0.0 | 2.0 | 0.00 | 0.62 | 0.00 | 94 | 1007.3 |
| 20260506144915 | 55 | 0 | 0.0 | 2.0 | 0.00 | 0.62 | 0.00 | 94 | 1007.3 |
| 20260506144510 | 55 | 0 | 0.0 | 2.0 | 0.00 | 0.62 | 0.00 | 94 | 1007.2 |
| 20260506144045 | 55 | 0 | 0.0 | 2.0 | 0.00 | 0.62 | 0.00 | 94 | 1007.3 |
| 20260506143545 | 54 | 270 | 0.0 | 1.0 | 0.00 | 0.62 | 0.00 | 94 | 1007.2 |
| 20260506143058 | 54 | 270 | 0.0 | 2.0 | 0.00 | 0.62 | 0.00 | 94 | 1007.3 |
| 20260506142600 | 54 | 90 | 0.0 | 1.0 | 0.00 | 0.62 | 0.00 | 94 | 1007.2 |
| 20260506142125 | 54 | 90 | 0.0 | 1.0 | 0.00 | 0.62 | 0.00 | 95 | 1007.2 |
| 20260506141628 | 54 | 90 | 0.0 | 1.0 | 0.00 | 0.62 | 0.00 | 95 | 1007.3 |
| 20260506141158 | 54 | 90 | 0.0 | 0.0 | 0.00 | 0.62 | 0.00 | 95 | 1007.3 |
| 20260506140738 | 54 | 90 | 0.0 | 0.0 | 0.00 | 0.62 | 0.00 | 95 | 1007.3 |
| 20260506140310 | 54 | 90 | 0.0 | 0.0 | 0.00 | 0.62 | 0.00 | 95 | 1007.3 |
| 20260506135850 | 54 | 45 | 0.0 | 1.0 | 0.00 | 0.62 | 0.00 | 95 | 1007.4 |
| 20260506135418 | 54 | 45 | 0.0 | 1.0 | 0.00 | 0.62 | 0.00 | 95 | 1007.4 |
| 20260506134958 | 54 | 45 | 0.0 | 1.0 | 0.00 | 0.62 | 0.00 | 95 | 1007.4 |
| 20260506134555 | 54 | 270 | 0.0 | 1.0 | 0.00 | 0.62 | 0.00 | 95 | 1007.4 |
| 20260506134110 | 54 | 90 | 0.0 | 0.0 | 0.00 | 0.62 | 0.00 | 95 | 1007.4 |
| 20260506133618 | 54 | 90 | 0.0 | 0.0 | 0.00 | 0.62 | 0.00 | 95 | 1007.4 |
| 20260506133155 | 54 | 90 | 0.0 | 0.0 | 0.00 | 0.62 | 0.00 | 95 | 1007.4 |
| 20260506132658 | 54 | 90 | 0.0 | 0.0 | 0.00 | 0.62 | 0.00 | 95 | 1007.4 |
| 20260506132255 | 54 | 270 | 0.0 | 1.0 | 0.00 | 0.62 | 0.00 | 95 | 1007.3 |
| 20260506131838 | 54 | 270 | 0.0 | 1.0 | 0.00 | 0.62 | 0.00 | 95 | 1007.4 |
| 20260506131415 | 54 | 270 | 0.0 | 1.0 | 0.00 | 0.62 | 0.00 | 95 | 1007.4 |
| 20260506130935 | 54 | 270 | 0.0 | 1.0 | 0.00 | 0.62 | 0.00 | 95 | 1007.3 |
| 20260506130500 | 53 | 90 | 0.0 | 0.0 | 0.00 | 0.62 | 0.00 | 95 | 1007.4 |
| 20260506130015 | 53 | 90 | 0.0 | 0.0 | 0.00 | 0.62 | 0.00 | 95 | 1007.3 |
| 20260506125518 | 53 | 90 | 0.0 | 0.0 | 0.00 | 0.62 | 0.00 | 95 | 1007.4 |
| 20260506125105 | 53 | 0 | 0.0 | 0.0 | 0.00 | 0.62 | 0.00 | 95 | 1007.4 |
| 20260506124645 | 53 | 0 | 0.0 | 0.0 | 0.00 | 0.62 | 0.00 | 95 | 1007.4 |
| 20260506124145 | 53 | 90 | 0.0 | 1.0 | 0.00 | 0.62 | 0.00 | 95 | 1007.4 |
| 20260506123715 | 53 | 90 | 0.0 | 0.0 | 0.00 | 0.61 | 0.00 | 95 | 1007.4 |
| 20260506123255 | 53 | 90 | 0.0 | 0.0 | 0.00 | 0.61 | 0.00 | 95 | 1007.5 |
| 20260506122815 | 53 | 90 | 0.0 | 0.0 | 0.00 | 0.61 | 0.00 | 95 | 1007.5 |
| 20260506122338 | 53 | 90 | 0.0 | 1.0 | 0.00 | 0.61 | 0.00 | 95 | 1007.4 |
| 20260506121925 | 53 | 0 | 0.0 | 1.0 | 0.00 | 0.61 | 0.00 | 95 | 1007.4 |
| 20260506121515 | 53 | 0 | 0.0 | 0.0 | 0.00 | 0.61 | 0.00 | 95 | 1007.4 |
| 20260506121025 | 53 | 0 | 0.0 | 0.0 | 0.00 | 0.61 | 0.00 | 95 | 1007.4 |
| 20260506120535 | 53 | 0 | 0.0 | 0.0 | 0.00 | 0.61 | 0.00 | 95 | 1007.4 |
| 20260506120125 | 53 | 0 | 0.0 | 0.0 | 0.00 | 0.61 | 0.00 | 95 | 1007.4 |
| 20260506115650 | 52 | 0 | 0.0 | 0.0 | 0.00 | 0.61 | 0.00 | 95 | 1007.2 |
| 20260506115205 | 52 | 90 | 0.0 | 0.0 | 0.00 | 0.61 | 0.00 | 95 | 1007.3 |
| 20260506114718 | 52 | 0 | 0.0 | 0.0 | 0.00 | 0.61 | 0.00 | 95 | 1007.3 |
| 20260506114310 | 52 | 90 | 0.0 | 0.0 | 0.00 | 0.61 | 0.00 | 95 | 1007.2 |
| 20260506113845 | 52 | 90 | 0.0 | 0.0 | 0.00 | 0.61 | 0.00 | 95 | 1007.1 |
| 20260506113355 | 52 | 0 | 0.0 | 1.0 | 0.00 | 0.61 | 0.00 | 95 | 1007.2 |
| 20260506112905 | 52 | 0 | 0.0 | 0.0 | 0.00 | 0.61 | 0.00 | 95 | 1007.1 |
| 20260506112455 | 52 | 90 | 0.0 | 0.0 | 0.00 | 0.61 | 0.00 | 95 | 1007.1 |
| 20260506112015 | 52 | 135 | 0.0 | 0.0 | 0.00 | 0.61 | 0.00 | 95 | 1007.0 |
| 20260506111550 | 52 | 0 | 0.0 | 2.0 | 0.00 | 0.61 | 0.00 | 95 | 1007.1 |
| 20260506111055 | 52 | 0 | 0.0 | 1.0 | 0.00 | 0.61 | 0.00 | 95 | 1007.1 |
| 20260506110605 | 51 | 90 | 0.0 | 2.0 | 0.00 | 0.61 | 0.00 | 95 | 1007.1 |
| 20260506110138 | 51 | 270 | 0.0 | 0.0 | 0.00 | 0.61 | 0.00 | 95 | 1007.0 |
| 20260506105650 | 51 | 45 | 0.0 | 1.0 | 0.00 | 0.61 | 0.00 | 95 | 1007.0 |